Regional Weather Roundup
Issued by NWS Charleston, SC

Home | Current Version | Previous Version | Text Only | Print | Product List | Glossary On
Versions: 1 2 3 4 5 6 7 8 9 10 11 12 13 14 15 16 17 18 19 20 21 22 23 24 25 26 27 28 29 30 31 32 33 34 35 36 37 38 39 40 41 42 43 44 45 46 47 48 49 50
000
ASUS42 KCHS 250025
RWRCHS

REGIONAL WEATHER ROUNDUP
NATIONAL WEATHER SERVICE CHARLESTON SC
700 PM EST WED DEC 24 2014

NOTE: "FAIR" INDICATES FEW OR NO CLOUDS BELOW 12,000 FEET WITH NO
SIGNIFICANT WEATHER AND/OR OBSTRUCTIONS TO VISIBILITY.

NOT ALL STATIONS ARE QUALITY CONTROLLED BY THE NATIONAL
WEATHER SERVICE. USE DATA WITH CAUTION...ESPECIALLY
DEWPOINT OBSERVATIONS.

SCZ027-030-031-034>040-042>050-250100-
...SOUTHEAST SOUTH CAROLINA...

CITY           SKY/WX    TMP DP  RH WIND       PRES   REMARKS
N CHARLESTON   CLOUDY    64  63  94 SW9       29.79R
6HR MIN TEMP:  64; 6HR MAX TEMP:  69; 6HR PCP:  0.39;

WATERFRONT PRK   N/A     63 N/A N/A SW8G14      N/A
MOUNT PLEASANT FAIR      64  63  94 S9        29.78F
PINOPOLIS        N/A     68  64  88 S7        29.66
MONCKS CORNER  MOCLDY    66  63  88 SW7       29.77R
SUMMERVILLE    MOCLDY    64  64 100 S5        29.78
BEAUFORT MCAS  CLOUDY    64  63  96 S7        29.78S
6HR MIN TEMP:  63; 6HR MAX TEMP:  68; 6HR PCP:  0.62;

BEAUFORT ARPT  FAIR      61  61 100 S3        29.79R FOG
HILTON HEAD IS CLOUDY    64  64 100 S8        29.81R
WALTERBORO     CLOUDY    64 N/A N/A S8        29.78S
ALLENDALE      CLOUDY    66  64  94 S7        29.75R

...SOUTHERN MIDLANDS AND PEE DEE...

CITY           SKY/WX    TMP DP  RH WIND       PRES   REMARKS
GEORGETOWN     NOT AVBL
KINGSTREE      NOT AVBL
ORANGEBURG     LGT RAIN  65  63  93 S12       29.75R
6HR MIN TEMP:  65; 6HR MAX TEMP:  68; 6HR PCP:  0.28;

BARNWELL       CLOUDY    66  66 100 SW7       29.76R
AIKEN          CLOUDY    64  64 100 S10G16    29.76R
MANNING        CLOUDY    64 N/A N/A S6        29.76R
COLUMBIA       CLOUDY    67  64  90 S10       29.72R
6HR MIN TEMP:  59; 6HR MAX TEMP:  67; 6HR PCP:  0.11;

SUMTER         CLOUDY    64  63  94 S14       29.71F
6HR MIN TEMP:  64; 6HR MAX TEMP:  67; 6HR PCP:  0.21;

FLORENCE       CLOUDY    66  63  90 S12       29.74R
6HR MIN TEMP:  66; 6HR MAX TEMP:  69; 6HR PCP:  0.21;

MYRTLE BEACH   MOCLDY    66  64  94 S12       29.79F
N MYRTLE BEACH LGT RAIN  66  63  90 S7        29.79F
6HR MIN TEMP:  63; 6HR MAX TEMP:  71; 6HR PCP:  0.70;


$$

GAZ063-065-086>088-099>101-113>116-118-119-134>141-150-250100-
...SOUTHEAST GEORGIA...

CITY           SKY/WX    TMP DP  RH WIND       PRES   REMARKS
SAVANNAH ARPT  CLOUDY    64  63  94 S6        29.79R
6HR MIN TEMP:  65; 6HR MAX TEMP:  70; 6HR PCP:  0.43;

HUNTER AAF     MOCLDY    64  64 100 S6        29.78R
6HR MIN TEMP:  64; 6HR MAX TEMP:  68; 6HR PCP:  0.49;

FORT STEWART   CLOUDY    66  64  94 SE6       29.77R
6HR MIN TEMP:  66; 6HR MAX TEMP:  69; 6HR PCP:  0.61;

STATESBORO     CLOUDY    65  65 100 S7        29.77R
SYLVANIA       CLOUDY    66  66 100 S6        29.77R
CLAXTON        LGT RAIN  66  64  94 CALM      29.78R

...CSRA...CENTRAL AND FAR SOUTHEAST GEORGIA...

CITY           SKY/WX    TMP DP  RH WIND       PRES   REMARKS
THOMSON        CLOUDY    68  67  95 CALM      29.76R
AUGUSTA-BUSH   CLOUDY    66  64  93 S8        29.72R
6HR MIN TEMP:  66; 6HR MAX TEMP:  67; 6HR PCP:  0.03;

AUGUSTA-DANIEL CLOUDY    67  64  90 S8        29.72R
SWAINSBORO     CLOUDY   N/A N/A N/A SW6       29.76R
VIDALIA        CLOUDY    66  64  94 SW9       29.76R
EASTMAN        CLOUDY    67  65  91 W14       29.79R
HAZLEHURST     MOCLDY    68  68 100 S6        29.77R
ALMA           CLOUDY    67  65  93 SW7       29.77R
6HR MIN TEMP:  67; 6HR MAX TEMP:  68; 6HR PCP:  0.14;

WAYCROSS       LGT RAIN  71  69  95 SW7       29.79R
JESUP          CLOUDY    70  70 100 CALM      29.79R
BAXLEY         CLOUDY    68  66  94 SW6       29.77R
BRUNSWICK      CLOUDY    68  64  88 S8        29.81R
SAINT SIMONS   CLOUDY    65  63  93 SW3       29.81R
6HR MIN TEMP:  64; 6HR MAX TEMP:  69; 6HR PCP:  0.21;


$$

SCZ027-028-034-036>038-045-046-048>050-GAZ119-141-250100-
...LAKE AND SUPPLEMENTAL COASTAL OBSERVATIONS...

STATION/POSITION TIME  TEMP    WIND        PRES    WAVE   SWELL
                       AIR SEA DIR/SP/G            HT/PER HT/PER/DIR
                 (UTC) (F)     (DEG/KT/KT) (MB)    (FT/S) (FT/S/D)
UPR LAKE MARION  NOT AVBL
WINYAH BAY       0000   66     180/  6     1008.0S
LAKE MURRAY      2300   62     160/ 10/ 12 1004.7S
ACE BASIN NERRS  0000   61     230/  1     1008.0S
FORT PULASKI     0000   62 56  190/  7/ 10 1009.2R
SAPELO ISLAND    0000   63     170/  7     1009.0R

$$

ANZ835-935-AMZ111-154-330-350-352-354-370-450-454-472-250100-
...C-MAN AND BUOY OBSERVATIONS...

STATION/POSITION TIME  TEMP    WIND        PRES    WAVE   SWELL
                       AIR SEA DIR/SP/G            HT/PER HT/PER/DIR
                 (UTC) (F)     (DEG/KT/KT) (MB)    (FT/S) (FT/S/D)
BUOY 41004       0000   69 73  250/ 17/ 21 1008.5R   8/ 8   7/ 8
BUOY 41008       0000   62 59  180/ 10/ 12 1008.9R   5/ 7   3/130/ 7
FOLLY BEACH CMAN 0000   58     200/  7/  8 1009.0F
CAPERS NEARSHORE 2300   60     200/ 10/ 12   N/A
FRIPP NEARSHORE  NOT AVBL


STATION/POSITION TIME  TEMP    WIND        PRES    WAVE   SWELL
                       AIR SEA DIR/SP/G            HT/PER HT/PER/DIR
                 (UTC) (F)     (DEG/KT/KT) (MB)    (FT/S) (FT/S/D)
5E ST. MARYS GA  0000      61                N/A     4/ 7
FRYING PAN BUOY  0000   74 71  190/ 19/ 23 1009.6F   8/ 8
BUOY 41025       0000   75                 1010.0R   8/ 8
CAPE LOOKOUT NC  0000   64     230/  3/  5 1010.1S
BUOY 41002       NOT AVBL
BUOY 41010       0000   77 77  180/ 19/ 23 1013.1R   6/ 7   3/210/ 8
ST AUGUSTINE FL  0000   68     220/  5/  8 1010.9R


$$



USA.gov is the U.S. government's official web portal to all federal, state and local government web resources and services.